This is the latest recevied weather packets stored in our database for station/object KD9WYV. If no packets are shown the sender has not sent any weather packets the latest 1 day(s).
| Time | Temp. | Humidity | Pressure | Rain* | Wind** | Luminosity | Snow |
|---|---|---|---|---|---|---|---|
| 1777982077 | 13.89° C | 93% | 1008 hPa | 0 mm | 1.79 m/s, 320° | 85 W/m² | - |
| 1777981776 | 13.33° C | 93% | 1007.9 hPa | 0 mm | 0.89 m/s, 274° | 73 W/m² | - |
| 1777981471 | 13.33° C | 94% | 1007.8 hPa | 0 mm | 0.89 m/s, 300° | 65 W/m² | - |
| 1777981168 | 13.33° C | 94% | 1007.6 hPa | 0 mm | 1.79 m/s, 265° | 62 W/m² | - |
| 1777980865 | 13.33° C | 94% | 1007.4 hPa | 0 mm | 1.79 m/s, 218° | 45 W/m² | - |
| 1777980560 | 13.33° C | 94% | 1007.4 hPa | 0 mm | 0.89 m/s, 287° | 32 W/m² | - |
| 1777980258 | 13.33° C | 95% | 1007.4 hPa | 0 mm | 1.34 m/s, 237° | 26 W/m² | - |
| 1777979954 | 13.33° C | 95% | 1007.2 hPa | 0 mm | 0.89 m/s, 169° | 22 W/m² | - |
| 1777979649 | 12.78° C | 95% | 1007.2 hPa | 0 mm | 2.24 m/s, 172° | 20 W/m² | - |
| 1777979346 | 12.78° C | 95% | 1007.3 hPa | 0 mm | 0 m/s | 17 W/m² | - |
| 1777979043 | 12.78° C | 95% | 1007.1 hPa | 0 mm | 0.45 m/s, 276° | 9 W/m² | - |
| 1777978739 | 12.78° C | 95% | 1007.2 hPa | 0 mm | 0.45 m/s, 297° | 5 W/m² | - |
| 1777978435 | 12.78° C | 95% | 1007.3 hPa | 0 mm | 0.45 m/s, 79° | 4 W/m² | - |
| 1777978132 | 12.78° C | 95% | 1007 hPa | 0 mm | 0.45 m/s, 228° | 5 W/m² | - |
| 1777977830 | 12.78° C | 95% | 1007.2 hPa | 0 mm | 0.89 m/s, 315° | 3 W/m² | - |
| 1777977525 | 12.78° C | 95% | 1007.2 hPa | 0 mm | 0.89 m/s, 249° | 2 W/m² | - |
| 1777977223 | 12.78° C | 95% | 1007.2 hPa | 0 mm | 0.45 m/s, 298° | 1 W/m² | - |
| 1777976920 | 12.78° C | 95% | 1007.2 hPa | 0 mm | 0 m/s | 0 W/m² | - |
| 1777976617 | 12.78° C | 95% | 1007.3 hPa | 0 mm | 0.89 m/s, 275° | 0 W/m² | - |
| 1777976313 | 12.78° C | 95% | 1007.1 hPa | 0 mm | 0.45 m/s, 156° | 0 W/m² | - |
| 1777976008 | 12.78° C | 95% | 1007 hPa | 0 mm | 0.45 m/s, 268° | 0 W/m² | - |
| 1777975704 | 12.78° C | 95% | 1007 hPa | 0 mm | 1.79 m/s, 220° | 0 W/m² | - |
| 1777975401 | 12.78° C | 95% | 1006.8 hPa | 0 mm | 0.45 m/s, 337° | 0 W/m² | - |
| 1777975097 | 12.78° C | 95% | 1006.5 hPa | 0 mm | 0.45 m/s, 304° | 0 W/m² | - |
| 1777974795 | 12.78° C | 95% | 1006.3 hPa | 0 mm | 0.89 m/s, 195° | 0 W/m² | - |
* Rain latest hour (hover to see other rain measurements)
** Current wind speed in m/s (hover to see current wind gust speed)